Location: Chillicothe
(39.7950°N, 93.5520°W)
Time: 20:40:23
(UTC-06:00)

BEESAT - Pass Details

Date: 18 November 2019
Orbit: 700 x 709 km, 98.6° (Epoch: 13 December)

Event Time Altitude Azimuth Distance (km) Brightness Sun altitude
Rises 05:12:04 0° 178° (S) 3,075 ? -21.0°
Reaches altitude 10° 05:14:22 10° 183° (S) 2,160 ? -20.6°
Maximum altitude 05:18:58 52° 259° (W) 872 ? -19.7°
Enters shadow 05:20:51 32° 318° (NW) 1,186 ? -19.4°
